Time,TemperatureF,DewpointF,PressureIn,WindDirection,WindDirectionDegrees,WindSpeedMPH,WindSpeedGustMPH,Humidity,HourlyPrecipIn,Conditions,Clouds,dailyrainin,SoftwareType,DateUTC
2013-07-06 00:05:00,91.4,41.0,29.29,North,357,0.0,-999.0,17,-99.99,,,0.00,weatherlink.com 1.10,2013-07-06 07:05:00,
2013-07-06 00:20:00,90.7,42.0,29.29,North,349,0.0,-999.0,18,-99.99,,,0.00,weatherlink.com 1.10,2013-07-06 07:20:00,
2013-07-06 00:35:00,89.5,42.0,29.29,North,357,0.0,-999.0,19,-99.99,,,0.00,weatherlink.com 1.10,2013-07-06 07:35:00,
2013-07-06 00:50:00,87.6,44.0,29.29,North,357,4.0,-999.0,22,-99.99,,,0.00,weatherlink.com 1.10,2013-07-06 07:50:00,
2013-07-06 01:05:00,87.2,43.0,29.28,North,357,0.0,-999.0,21,-99.99,,,0.00,weatherlink.com 1.10,2013-07-06 08:05:00,
2013-07-06 01:20:00,87.4,45.0,29.28,North,357,0.0,-999.0,23,-99.99,,,0.00,weatherlink.com 1.10,2013-07-06 08:20:00,
2013-07-06 01:35:00,87.0,44.0,29.28,North,357,1.0,-999.0,22,-99.99,,,0.00,weatherlink.com 1.10,2013-07-06 08:35:00,
2013-07-06 01:50:00,86.5,47.0,29.28,North,357,2.0,-999.0,25,-99.99,,,0.00,weatherlink.com 1.10,2013-07-06 08:50:00,
2013-07-06 02:05:00,85.3,45.0,29.28,North,356,0.0,-999.0,24,-99.99,,,0.00,weatherlink.com 1.10,2013-07-06 09:05:00,
2013-07-06 02:20:00,84.9,46.0,29.28,North,356,0.0,-999.0,26,-99.99,,,0.00,weatherlink.com 1.10,2013-07-06 09:20:00,
2013-07-06 02:35:00,84.0,50.0,29.27,North,359,0.0,-999.0,31,-99.99,,,0.00,weatherlink.com 1.10,2013-07-06 09:35:00,
2013-07-06 02:50:00,83.2,47.0,29.27,North,359,0.0,-999.0,28,-99.99,,,0.00,weatherlink.com 1.10,2013-07-06 09:50:00,
2013-07-06 03:05:00,82.6,48.0,29.27,North,359,0.0,-999.0,30,-99.99,,,0.00,weatherlink.com 1.10,2013-07-06 10:05:00,
2013-07-06 03:20:00,82.0,45.0,29.28,North,359,0.0,-999.0,27,-99.99,,,0.00,weatherlink.com 1.10,2013-07-06 10:20:00,
2013-07-06 03:35:00,81.8,46.0,29.28,North,359,0.0,-999.0,28,-99.99,,,0.00,weatherlink.com 1.10,2013-07-06 10:35:00,
2013-07-06 03:50:00,82.0,44.0,29.28,North,357,0.0,-999.0,26,-99.99,,,0.00,weatherlink.com 1.10,2013-07-06 10:50:00,
2013-07-06 04:05:00,82.0,45.0,29.28,North,357,0.0,-999.0,27,-99.99,,,0.00,weatherlink.com 1.10,2013-07-06 11:05:00,
2013-07-06 04:20:00,81.8,45.0,29.28,North,359,0.0,-999.0,27,-99.99,,,0.00,weatherlink.com 1.10,2013-07-06 11:20:00,
2013-07-06 04:35:00,81.6,44.0,29.28,North,359,0.0,-999.0,27,-99.99,,,0.00,weatherlink.com 1.10,2013-07-06 11:35:00,
2013-07-06 04:50:00,-999.0,-99.9,29.28,North,-999,-999.0,-999.0,-999,-99.99,,,0.00,weatherlink.com 1.10,2013-07-06 11:50:00,
2013-07-06 05:05:00,-999.0,-99.9,29.28,North,-999,-999.0,-999.0,-999,-99.99,,,0.00,weatherlink.com 1.10,2013-07-06 12:05:00,
2013-07-06 05:21:00,-999.0,-99.9,29.28,North,-999,-999.0,-999.0,-999,-99.99,,,0.00,weatherlink.com 1.10,2013-07-06 12:21:00,
2013-07-06 05:36:00,-999.0,-99.9,29.29,North,-999,-999.0,-999.0,-999,-99.99,,,0.00,weatherlink.com 1.10,2013-07-06 12:36:00,
2013-07-06 05:51:00,-999.0,-99.9,29.29,North,-999,-999.0,-999.0,-999,-99.99,,,0.00,weatherlink.com 1.10,2013-07-06 12:51:00,
2013-07-06 06:06:00,-999.0,-99.9,29.29,North,-999,-999.0,-999.0,-999,-99.99,,,0.00,weatherlink.com 1.10,2013-07-06 13:06:00,
2013-07-06 06:21:00,-999.0,-99.9,29.30,North,-999,-999.0,-999.0,-999,-99.99,,,0.00,weatherlink.com 1.10,2013-07-06 13:21:00,
2013-07-06 06:36:00,81.6,46.0,29.30,North,357,0.0,-999.0,29,-99.99,,,0.00,weatherlink.com 1.10,2013-07-06 13:36:00,
2013-07-06 06:51:00,82.8,46.0,29.31,North,357,0.0,-999.0,28,-99.99,,,0.00,weatherlink.com 1.10,2013-07-06 13:51:00,
2013-07-06 07:06:00,83.4,46.0,29.31,North,357,0.0,-999.0,27,-99.99,,,0.00,weatherlink.com 1.10,2013-07-06 14:06:00,
2013-07-06 07:21:00,84.9,47.0,29.32,North,359,0.0,-999.0,27,-99.99,,,0.00,weatherlink.com 1.10,2013-07-06 14:21:00,
2013-07-06 07:36:00,88.0,49.0,29.32,North,357,0.0,-999.0,26,-99.99,,,0.00,weatherlink.com 1.10,2013-07-06 14:36:00,
2013-07-06 07:51:00,90.7,49.0,29.32,North,357,0.0,-999.0,24,-99.99,,,0.00,weatherlink.com 1.10,2013-07-06 14:51:00,
2013-07-06 08:06:00,92.9,49.0,29.32,North,357,0.0,-999.0,22,-99.99,,,0.00,weatherlink.com 1.10,2013-07-06 15:06:00,
2013-07-06 08:21:00,93.8,48.0,29.33,North,357,0.0,-999.0,21,-99.99,,,0.00,weatherlink.com 1.10,2013-07-06 15:21:00,
2013-07-06 08:36:00,94.3,50.0,29.33,North,357,0.0,-999.0,22,-99.99,,,0.00,weatherlink.com 1.10,2013-07-06 15:36:00,
2013-07-06 08:51:00,95.1,47.0,29.33,North,357,0.0,-999.0,19,-99.99,,,0.00,weatherlink.com 1.10,2013-07-06 15:51:00,
2013-07-06 09:06:00,96.3,48.0,29.33,North,357,0.0,-999.0,19,-99.99,,,0.00,weatherlink.com 1.10,2013-07-06 16:06:00,
2013-07-06 09:21:00,97.8,49.0,29.34,North,356,3.0,-999.0,19,-99.99,,,0.00,weatherlink.com 1.10,2013-07-06 16:21:00,
2013-07-06 09:36:00,98.5,51.0,29.33,North,356,2.0,-999.0,20,-99.99,,,0.00,weatherlink.com 1.10,2013-07-06 16:36:00,
2013-07-06 09:51:00,99.2,52.0,29.33,North,357,2.0,-999.0,20,-99.99,,,0.00,weatherlink.com 1.10,2013-07-06 16:51:00,
2013-07-06 10:06:00,101.2,49.0,29.33,North,357,0.0,-999.0,17,-99.99,,,0.00,weatherlink.com 1.10,2013-07-06 17:06:00,
2013-07-06 10:21:00,101.0,50.0,29.33,NE,56,1.0,-999.0,18,-99.99,,,0.00,weatherlink.com 1.10,2013-07-06 17:21:00,
2013-07-06 10:51:00,103.6,49.0,29.33,North,357,0.0,-999.0,16,-99.99,,,0.00,weatherlink.com 1.10,2013-07-06 17:51:00,
2013-07-06 11:06:00,105.1,50.0,29.32,North,354,2.0,-999.0,16,-99.99,,,0.00,weatherlink.com 1.10,2013-07-06 18:06:00,
2013-07-06 11:36:00,106.5,46.0,29.31,North,357,9.0,-999.0,13,-99.99,,,0.00,weatherlink.com 1.10,2013-07-06 18:36:00,
2013-07-06 11:51:00,106.8,44.0,29.31,North,357,10.0,-999.0,12,-99.99,,,0.00,weatherlink.com 1.10,2013-07-06 18:51:00,
2013-07-06 12:22:00,107.1,45.0,29.30,North,357,5.0,-999.0,12,-99.99,,,0.00,weatherlink.com 1.10,2013-07-06 19:22:00,
2013-07-06 12:37:00,106.8,44.0,29.30,North,357,6.0,-999.0,12,-99.99,,,0.00,weatherlink.com 1.10,2013-07-06 19:37:00,
2013-07-06 13:22:00,108.5,46.0,29.29,North,354,2.0,-999.0,12,-99.99,,,0.00,weatherlink.com 1.10,2013-07-06 20:22:00,
2013-07-06 13:37:00,108.5,46.0,29.28,North,356,1.0,-999.0,12,-99.99,,,0.00,weatherlink.com 1.10,2013-07-06 20:37:00,
2013-07-06 13:52:00,108.8,48.0,29.28,North,356,0.0,-999.0,13,-99.99,,,0.00,weatherlink.com 1.10,2013-07-06 20:52:00,
2013-07-06 14:22:00,108.5,52.0,29.27,NNW,346,3.0,-999.0,15,-99.99,,,0.00,weatherlink.com 1.10,2013-07-06 21:22:00,
2013-07-06 15:37:00,110.2,47.0,29.23,North,354,6.0,-999.0,12,-99.99,,,0.00,weatherlink.com 1.10,2013-07-06 22:37:00,
2013-07-06 16:07:00,109.9,51.0,29.21,North,356,1.0,-999.0,14,-99.99,,,0.00,weatherlink.com 1.10,2013-07-06 23:07:00,
2013-07-06 16:22:00,110.5,49.0,29.21,North,356,2.0,-999.0,13,-99.99,,,0.00,weatherlink.com 1.10,2013-07-06 23:22:00,
2013-07-06 16:37:00,109.6,49.0,29.20,North,356,5.0,-999.0,13,-99.99,,,0.00,weatherlink.com 1.10,2013-07-06 23:37:00,
2013-07-06 17:07:00,109.6,49.0,29.20,North,356,5.0,-999.0,13,-99.99,,,0.00,weatherlink.com 1.10,2013-07-07 00:07:00,
2013-07-06 17:22:00,109.3,48.0,29.20,North,356,8.0,-999.0,13,-99.99,,,0.00,weatherlink.com 1.10,2013-07-07 00:22:00,
2013-07-06 17:52:00,108.5,50.0,29.20,North,356,2.0,-999.0,14,-99.99,,,0.00,weatherlink.com 1.10,2013-07-07 00:52:00,
2013-07-06 18:07:00,108.2,48.0,29.20,North,356,5.0,-999.0,13,-99.99,,,0.00,weatherlink.com 1.10,2013-07-07 01:07:00,
2013-07-06 19:07:00,104.9,45.0,29.21,North,356,1.0,-999.0,13,-99.99,,,0.00,weatherlink.com 1.10,2013-07-07 02:07:00,
2013-07-06 19:37:00,103.1,43.0,29.22,North,357,2.0,-999.0,13,-99.99,,,0.00,weatherlink.com 1.10,2013-07-07 02:37:00,
2013-07-06 19:52:00,102.3,43.0,29.22,North,357,1.0,-999.0,13,-99.99,,,0.00,weatherlink.com 1.10,2013-07-07 02:52:00,
2013-07-06 20:07:00,101.5,44.0,29.22,North,357,1.0,-999.0,14,-99.99,,,0.00,weatherlink.com 1.10,2013-07-07 03:07:00,
2013-07-06 20:52:00,98.7,44.0,29.23,North,357,0.0,-999.0,15,-99.99,,,0.00,weatherlink.com 1.10,2013-07-07 03:52:00,
2013-07-06 21:07:00,98.0,43.0,29.24,North,357,1.0,-999.0,15,-99.99,,,0.00,weatherlink.com 1.10,2013-07-07 04:07:00,
2013-07-06 21:22:00,97.3,44.0,29.24,North,357,2.0,-999.0,16,-99.99,,,0.00,weatherlink.com 1.10,2013-07-07 04:22:00,
2013-07-06 21:37:00,96.8,45.0,29.25,North,357,2.0,-999.0,17,-99.99,,,0.00,weatherlink.com 1.10,2013-07-07 04:37:00,
2013-07-06 21:52:00,96.1,46.0,29.25,North,357,5.0,-999.0,18,-99.99,,,0.00,weatherlink.com 1.10,2013-07-07 04:52:00,
2013-07-06 22:07:00,95.6,47.0,29.25,North,357,2.0,-999.0,19,-99.99,,,0.00,weatherlink.com 1.10,2013-07-07 05:07:00,
2013-07-06 22:22:00,94.7,46.0,29.25,North,357,1.0,-999.0,19,-99.99,,,0.00,weatherlink.com 1.10,2013-07-07 05:22:00,
2013-07-06 22:37:00,94.3,46.0,29.25,North,357,0.0,-999.0,19,-99.99,,,0.00,weatherlink.com 1.10,2013-07-07 05:37:00,
2013-07-06 22:52:00,94.0,46.0,29.25,North,357,0.0,-999.0,19,-99.99,,,0.00,weatherlink.com 1.10,2013-07-07 05:52:00,
2013-07-06 23:07:00,93.8,47.0,29.25,North,357,2.0,-999.0,20,-99.99,,,0.00,weatherlink.com 1.10,2013-07-07 06:07:00,
2013-07-06 23:22:00,93.2,48.0,29.25,North,356,0.0,-999.0,21,-99.99,,,0.00,weatherlink.com 1.10,2013-07-07 06:22:00,
2013-07-06 23:37:00,92.7,47.0,29.25,North,356,0.0,-999.0,21,-99.99,,,0.00,weatherlink.com 1.10,2013-07-07 06:37:00,
2013-07-06 23:52:00,92.1,47.0,29.25,North,356,0.0,-999.0,21,-99.99,,,0.00,weatherlink.com 1.10,2013-07-07 06:52:00,